• In Hungary
  • List of Countries
  • For 7 days
  • Water Temperature
  • Satellite Maps
  • Weather Map
  • News
  • Weather Widgets
  • user-avatar
    Login

    Hourly Weather Kingston

    Today, 24 June, Sunday

    Time Temperature Precipitation Wind Pressure Humidity
    00:00 +22°C° 0.4 mm 4 mps 707 mmHg 89%
    01:00 +22°C° 0.4 mm 4 mps 707 mmHg 90%
    02:00 +22°C° 0.9 mm 4 mps 706 mmHg 90%
    03:00 +22°C° 0.9 mm 4 mps 706 mmHg 90%
    04:00 +22°C° 0.9 mm 4 mps 706 mmHg 91%
    05:00 +22°C° 1.1 mm 4 mps 706 mmHg 87%
    06:00 +23°C° 1.1 mm 4 mps 706 mmHg 84%
    07:00 +25°C° 1.1 mm 4 mps 707 mmHg 81%
    08:00 +26°C° 0.8 mm 5 mps 707 mmHg 76%
    09:00 +27°C° 0.8 mm 5 mps 708 mmHg 71%
    10:00 +28°C° 0.8 mm 6 mps 708 mmHg 67%
    11:00 +28°C° 0.7 mm 6 mps 708 mmHg 66%
    12:00 +28°C° 0.7 mm 6 mps 708 mmHg 65%
    13:00 +28°C° 0.7 mm 7 mps 708 mmHg 65%
    14:00 +28°C° 0.6 mm 6 mps 707 mmHg 66%
    15:00 +28°C° 0.6 mm 6 mps 707 mmHg 67%
    16:00 +27°C° 0.6 mm 6 mps 707 mmHg 68%
    17:00 +26°C° 0.8 mm 5 mps 707 mmHg 73%
    18:00 +25°C° 0.8 mm 5 mps 707 mmHg 77%
    19:00 +23°C° 0.8 mm 5 mps 707 mmHg 82%
    20:00 +23°C° 1 mm 5 mps 707 mmHg 83%
    21:00 +22°C° 1 mm 5 mps 708 mmHg 85%
    22:00 +22°C° 1 mm 5 mps 708 mmHg 87%
    23:00 +22°C° 0.9 mm 5 mps 708 mmHg 87%

    Tomorrow, 25 June, Monday

    Time Temperature Precipitation Wind Pressure Humidity
    00:00 +22°C° 0.9 mm 5 mps 707 mmHg 88%
    01:00 +21°C° 0.9 mm 5 mps 707 mmHg 88%
    02:00 +21°C° 0.9 mm 5 mps 707 mmHg 88%
    03:00 +21°C° 0.9 mm 5 mps 707 mmHg 89%
    04:00 +21°C° 0.9 mm 5 mps 707 mmHg 89%
    05:00 +22°C° 0.7 mm 5 mps 707 mmHg 86%
    06:00 +23°C° 0.7 mm 5 mps 707 mmHg 83%
    07:00 +23°C° 0.7 mm 5 mps 708 mmHg 80%
    08:00 +26°C° 0.4 mm 5 mps 708 mmHg 76%
    09:00 +27°C° 0.4 mm 6 mps 708 mmHg 71%
    10:00 +28°C° 0.4 mm 6 mps 708 mmHg 66%
    11:00 +28°C° 0.4 mm 6 mps 708 mmHg 65%
    12:00 +29°C° 0.4 mm 6 mps 708 mmHg 64%
    13:00 +29°C° 0.4 mm 6 mps 708 mmHg 63%
    14:00 +29°C° 0.4 mm 6 mps 708 mmHg 64%
    15:00 +28°C° 0.4 mm 6 mps 707 mmHg 66%
    16:00 +28°C° 0.4 mm 6 mps 707 mmHg 67%
    17:00 +27°C° 0.4 mm 6 mps 707 mmHg 72%
    18:00 +25°C° 0.4 mm 5 mps 707 mmHg 77%
    19:00 +23°C° 0.4 mm 5 mps 708 mmHg 81%
    20:00 +23°C° 0.2 mm 5 mps 708 mmHg 83%
    21:00 +22°C° 0.2 mm 5 mps 708 mmHg 85%
    22:00 +22°C° 0.2 mm 5 mps 708 mmHg 87%
    23:00 +22°C° 0.4 mm 5 mps 708 mmHg 87%

    Day after tomorrow, 26 June, Tuesday

    Time Temperature Precipitation Wind Pressure Humidity
    00:00 +22°C° 0.4 mm 5 mps 708 mmHg 87%
    01:00 +22°C° 0.4 mm 5 mps 707 mmHg 87%
    02:00 +22°C° 0.6 mm 4 mps 707 mmHg 88%
    03:00 +22°C° 0.6 mm 4 mps 707 mmHg 88%
    04:00 +22°C° 0.6 mm 4 mps 707 mmHg 88%
    05:00 +22°C° 0.6 mm 4 mps 707 mmHg 85%
    06:00 +23°C° 0.6 mm 4 mps 707 mmHg 83%
    07:00 +23°C° 0.6 mm 4 mps 707 mmHg 80%
    08:00 +26°C° 0.3 mm 5 mps 708 mmHg 76%
    09:00 +27°C° 0.3 mm 5 mps 708 mmHg 72%
    10:00 +28°C° 0.3 mm 6 mps 708 mmHg 67%
    11:00 +29°C° 0.3 mm 6 mps 708 mmHg 66%
    12:00 +29°C° 0.3 mm 6 mps 708 mmHg 64%
    13:00 +30°C° 0.3 mm 6 mps 708 mmHg 63%
    14:00 +29°C° 0.4 mm 6 mps 708 mmHg 64%
    15:00 +29°C° 0.4 mm 6 mps 708 mmHg 65%
    16:00 +28°C° 0.4 mm 6 mps 707 mmHg 66%
    17:00 +27°C° 0.4 mm 5 mps 707 mmHg 72%
    18:00 +26°C° 0.4 mm 5 mps 707 mmHg 77%
    19:00 +25°C° 0.4 mm 4 mps 707 mmHg 82%
    20:00 +23°C° 0.1 mm 4 mps 707 mmHg 84%
    21:00 +23°C° 0.1 mm 4 mps 708 mmHg 86%
    22:00 +23°C° 0.1 mm 4 mps 708 mmHg 89%
    23:00 +22°C° 0 mm 4 mps 708 mmHg 89%

    27 June, Wednesday

    Time Temperature Precipitation Wind Pressure Humidity
    00:00 +22°C° 0 mm 4 mps 707 mmHg 90%
    01:00 +22°C° 0 mm 4 mps 707 mmHg 91%
    02:00 +22°C° 0.1 mm 4 mps 707 mmHg 91%
    03:00 +22°C° 0.1 mm 4 mps 706 mmHg 92%
    04:00 +22°C° 0.1 mm 4 mps 706 mmHg 93%
    05:00 +22°C° 0.1 mm 4 mps 706 mmHg 90%
    06:00 +23°C° 0.1 mm 4 mps 707 mmHg 87%
    07:00 +25°C° 0.1 mm 4 mps 707 mmHg 84%
    08:00 +26°C° 0 mm 5 mps 708 mmHg 77%
    09:00 +28°C° 0 mm 5 mps 708 mmHg 71%
    10:00 +29°C° 0 mm 5 mps 708 mmHg 65%
    11:00 +30°C° 0 mm 5 mps 708 mmHg 62%
    12:00 +30°C° 0 mm 6 mps 708 mmHg 59%
    13:00 +32°C° 0 mm 6 mps 708 mmHg 56%
    14:00 +32°C° 0 mm 6 mps 708 mmHg 58%
    15:00 +30°C° 0 mm 6 mps 707 mmHg 59%
    16:00 +30°C° 0 mm 6 mps 707 mmHg 60%
    17:00 +29°C° 0 mm 5 mps 707 mmHg 67%
    18:00 +27°C° 0 mm 5 mps 707 mmHg 74%
    19:00 +25°C° 0 mm 4 mps 707 mmHg 81%
    20:00 +25°C° 0.1 mm 4 mps 708 mmHg 85%
    21:00 +24°C° 0.1 mm 3 mps 708 mmHg 88%
    22:00 +22°C° 0.1 mm 3 mps 708 mmHg 91%
    23:00 +22°C° 0 mm 3 mps 708 mmHg 92%

    28 June, Thursday

    Time Temperature Precipitation Wind Pressure Humidity
    00:00 +22°C° 0 mm 3 mps 708 mmHg 92%
    01:00 +22°C° 0 mm 3 mps 707 mmHg 93%
    02:00 +22°C° 0 mm 3 mps 707 mmHg 93%
    03:00 +22°C° 0 mm 3 mps 707 mmHg 93%
    04:00 +22°C° 0 mm 3 mps 707 mmHg 93%
    05:00 +22°C° 0 mm 3 mps 707 mmHg 90%
    06:00 +23°C° 0 mm 4 mps 707 mmHg 87%
    07:00 +25°C° 0 mm 4 mps 708 mmHg 84%
    08:00 +26°C° 0 mm 4 mps 708 mmHg 77%
    09:00 +28°C° 0 mm 4 mps 708 mmHg 70%
    10:00 +29°C° 0 mm 5 mps 708 mmHg 63%
    11:00 +30°C° 0 mm 5 mps 708 mmHg 61%
    12:00 +32°C° 0 mm 5 mps 708 mmHg 58%
    13:00 +32°C° 0 mm 5 mps 708 mmHg 55%
    14:00 +32°C° 0.2 mm 5 mps 708 mmHg 57%
    15:00 +30°C° 0.2 mm 5 mps 707 mmHg 60%
    16:00 +30°C° 0.2 mm 5 mps 707 mmHg 62%
    17:00 +28°C° 0 mm 4 mps 707 mmHg 68%
    18:00 +27°C° 0 mm 4 mps 707 mmHg 75%
    19:00 +25°C° 0 mm 4 mps 707 mmHg 81%
    20:00 +24°C° 0 mm 3 mps 708 mmHg 85%
    21:00 +24°C° 0 mm 3 mps 708 mmHg 88%
    22:00 +22°C° 0 mm 3 mps 708 mmHg 91%
    23:00 +22°C° 0 mm 3 mps 708 mmHg 92%

    29 June, Friday

    Time Temperature Precipitation Wind Pressure Humidity
    00:00 +22°C° 0 mm 3 mps 708 mmHg 93%
    01:00 +22°C° 0 mm 3 mps 707 mmHg 93%
    02:00 +21°C° 0 mm 3 mps 707 mmHg 93%
    03:00 +21°C° 0 mm 3 mps 707 mmHg 93%
    04:00 +21°C° 0 mm 3 mps 707 mmHg 93%
    05:00 +22°C° 0 mm 3 mps 707 mmHg 89%
    06:00 +24°C° 0 mm 3 mps 707 mmHg 86%
    07:00 +25°C° 0 mm 3 mps 708 mmHg 82%
    08:00 +26°C° 0.3 mm 3 mps 708 mmHg 76%
    09:00 +27°C° 0.3 mm 4 mps 708 mmHg 70%
    10:00 +29°C° 0.3 mm 4 mps 709 mmHg 63%
    11:00 +29°C° 0.8 mm 5 mps 709 mmHg 62%
    12:00 +30°C° 0.8 mm 5 mps 708 mmHg 61%
    13:00 +30°C° 0.8 mm 5 mps 708 mmHg 60%
    14:00 +29°C° 0.7 mm 5 mps 708 mmHg 61%
    15:00 +29°C° 0.7 mm 5 mps 708 mmHg 62%
    16:00 +29°C° 0.7 mm 5 mps 707 mmHg 63%
    17:00 +27°C° 0.1 mm 5 mps 707 mmHg 69%
    18:00 +26°C° 0.1 mm 4 mps 707 mmHg 74%
    19:00 +25°C° 0.1 mm 4 mps 707 mmHg 80%
    20:00 +23°C° 0.1 mm 4 mps 707 mmHg 83%
    21:00 +22°C° 0.1 mm 3 mps 708 mmHg 87%
    22:00 +22°C° 0.1 mm 3 mps 708 mmHg 90%
    23:00 +22°C° 0.1 mm 4 mps 707 mmHg 90%
    Show more